Time+07,TemperatureF,Dew PointF,Humidity,Sea Level PressureIn,VisibilityMPH,Wind Direction,Wind SpeedMPH,Gust SpeedMPH,PrecipitationIn,Events,Conditions,WindDirDegrees,DateUTC
12:00 AM,80.6,73.4,79,29.77,5.0,WSW,8.1,-,N/A,,Scattered Clouds,250,2013-02-27 17:00:00
12:30 AM,80.6,73.4,79,29.77,5.0,West,4.6,-,N/A,,Scattered Clouds,260,2013-02-27 17:30:00
7:00 AM,78.8,73.4,83,29.80,3.7,Variable,2.3,-,N/A,,Scattered Clouds,0,2013-02-28 00:00:00
7:30 AM,78.8,73.4,83,29.80,3.7,Variable,2.3,-,N/A,,Scattered Clouds,0,2013-02-28 00:30:00
8:00 AM,82.4,75.2,79,29.80,3.7,Variable,2.3,-,N/A,,Scattered Clouds,0,2013-02-28 01:00:00
8:30 AM,82.4,73.4,74,29.83,3.7,East,4.6,-,N/A,,Scattered Clouds,100,2013-02-28 01:30:00
9:00 AM,84.2,73.4,70,29.83,5.0,Variable,2.3,-,N/A,,Scattered Clouds,0,2013-02-28 02:00:00
9:30 AM,86.0,73.4,66,29.83,5.0,Variable,3.5,-,N/A,,Scattered Clouds,0,2013-02-28 02:30:00
10:00 AM,87.8,73.4,62,29.83,5.6,South,4.6,-,N/A,,Scattered Clouds,190,2013-02-28 03:00:00
10:30 AM,89.6,73.4,59,29.83,6.2,Variable,3.5,-,N/A,,Scattered Clouds,0,2013-02-28 03:30:00
11:00 AM,89.6,73.4,59,29.83,6.2,ESE,4.6,-,N/A,,Scattered Clouds,110,2013-02-28 04:00:00
11:30 AM,89.6,71.6,55,29.80,6.2,South,4.6,-,N/A,,Scattered Clouds,190,2013-02-28 04:30:00
12:00 PM,91.4,71.6,52,29.77,6.2,Variable,2.3,-,N/A,,Scattered Clouds,0,2013-02-28 05:00:00
12:30 PM,91.4,71.6,52,29.77,6.2,Variable,2.3,-,N/A,,Scattered Clouds,0,2013-02-28 05:30:00
1:00 PM,91.4,71.6,52,29.74,6.2,WSW,4.6,-,N/A,,Scattered Clouds,250,2013-02-28 06:00:00
1:30 PM,93.2,73.4,52,29.74,6.2,West,8.1,-,N/A,,Scattered Clouds,270,2013-02-28 06:30:00
2:00 PM,93.2,73.4,52,29.71,6.2,SSW,6.9,-,N/A,,Scattered Clouds,200,2013-02-28 07:00:00
2:30 PM,95.0,71.6,47,29.71,6.2,SSW,8.1,-,N/A,,Scattered Clouds,200,2013-02-28 07:30:00
3:00 PM,95.0,69.8,44,29.71,6.2,South,6.9,-,N/A,,Scattered Clouds,190,2013-02-28 08:00:00
3:30 PM,95.0,68.0,41,29.68,6.2,SSE,8.1,-,N/A,,Scattered Clouds,160,2013-02-28 08:30:00
4:00 PM,95.0,66.2,39,29.68,6.2,South,6.9,-,N/A,,Partly Cloudy,180,2013-02-28 09:00:00
4:30 PM,95.0,64.4,36,29.68,6.2,SSE,6.9,-,N/A,,Partly Cloudy,160,2013-02-28 09:30:00
5:00 PM,93.2,66.2,41,29.68,6.2,South,8.1,-,N/A,,Partly Cloudy,170,2013-02-28 10:00:00
5:30 PM,91.4,66.2,43,29.68,6.2,SSE,6.9,-,N/A,,Partly Cloudy,160,2013-02-28 10:30:00
6:30 PM,87.8,66.2,49,29.68,6.2,Calm,Calm,-,N/A,,Partly Cloudy,0,2013-02-28 11:30:00
7:00 PM,86.0,69.8,58,29.71,5.6,Calm,Calm,-,N/A,,Unknown,0,2013-02-28 12:00:00
7:30 PM,84.2,69.8,62,29.71,5.6,Calm,Calm,-,N/A,,Unknown,0,2013-02-28 12:30:00
8:00 PM,86.0,69.8,58,29.71,5.6,ENE,3.5,-,N/A,,Unknown,60,2013-02-28 13:00:00
8:30 PM,82.4,69.8,66,29.74,5.6,NNE,2.3,-,N/A,,Unknown,20,2013-02-28 13:30:00
9:00 PM,80.6,71.6,74,29.74,5.6,Calm,Calm,-,N/A,,Unknown,0,2013-02-28 14:00:00
9:30 PM,80.6,71.6,74,29.74,5.6,Calm,Calm,-,N/A,,Unknown,0,2013-02-28 14:30:00
10:30 PM,80.6,73.4,79,29.77,5.6,Calm,Calm,-,N/A,,Unknown,0,2013-02-28 15:30:00
11:00 PM,80.6,71.6,74,29.77,5.6,SE,3.5,-,N/A,,Unknown,140,2013-02-28 16:00:00
11:30 PM,80.6,71.6,74,29.77,5.6,South,2.3,-,N/A,,Unknown,190,2013-02-28 16:30:00